Theta_e
321 326 331 332 335 337 342 341 344 344 342 344 340 341 343 344 346 338 340 339 335 333 343 342 333 330 329 329 330 329 331 336 342 346 344 344 341 337 332 329 332 337 340 341 341 339 336 330 329
326 329 331 325 331 333 333 336 343 340 337 337 337 340 341 345 344 342 341 340 335 334 342 341 335 329 329 327 327 330 330 330 333 339 341 336 333 330 329 330 334 337 338 338 336 333 330 328 326
323 325 320 324 327 333 333 334 338 337 337 338 334 335 335 344 343 341 342 340 334 336 341 342 336 331 328 327 326 326 330 332 332 331 333 334 333 332 332 334 336 337 336 335 332 330 328 326 324
326 320 318 328 331 328 330 329 332 331 335 335 334 334 336 335 340 342 344 342 341 341 343 342 339 334 329 328 327 326 326 329 331 333 334 333 333 333 334 336 338 339 339 339 337 335 332 330 326
319 316 322 322 323 323 323 324 324 334 336 338 337 333 335 337 342 344 344 342 342 340 343 343 340 335 332 329 329 329 329 328 328 329 329 330 332 334 335 335 336 336 336 335 335 333 332 330 328
316 314 320 320 319 317 315 317 329 335 339 340 337 334 335 341 346 348 345 344 340 343 344 345 340 337 335 332 330 329 331 332 331 329 329 330 332 335 335 335 334 334 335 335 334 333 332 329 328
317 315 318 318 316 314 316 314 333 337 339 339 331 333 333 341 345 347 346 342 341 342 345 345 342 338 336 335 333 330 330 332 334 333 332 331 330 331 331 331 331 330 329 329 328 327 327 327 325
312 312 316 312 312 314 315 314 318 337 338 334 332 333 337 333 345 345 343 341 341 347 347 350 348 341 338 337 336 335 332 330 332 334 334 332 331 330 330 330 329 329 329 329 329 329 328 328 327
307 308 309 312 313 315 313 314 318 327 334 336 334 335 335 339 344 343 344 345 346 349 349 350 354 349 342 339 337 337 336 333 331 333 335 335 333 332 331 330 328 329 330 331 330 329 327 326 325
308 307 311 310 312 314 312 313 313 318 329 336 337 337 340 341 340 342 344 344 344 345 347 348 349 351 348 343 339 338 338 337 334 332 333 334 333 330 330 330 329 329 330 331 331 330 329 328 324
309 311 311 313 311 311 312 315 335 330 319 327 335 337 341 340 339 342 344 344 344 342 341 343 349 351 350 346 340 339 339 338 337 334 333 334 334 332 332 331 329 329 331 334 335 336 336 335 331
314 311 311 313 312 313 323 320 344 344 344 342 339 338 340 342 342 340 339 339 342 344 341 337 340 341 344 345 344 339 336 334 334 333 332 333 335 333 333 330 330 330 329 331 332 333 334 335 335
312 313 310 313 322 332 336 339 343 340 336 338 339 339 338 336 337 339 338 332 335 338 343 340 336 336 338 340 341 340 339 333 329 329 329 330 332 331 330 329 331 330 330 330 331 331 334 338 340
313 315 313 313 325 338 339 338 339 337 335 338 341 342 345 345 342 341 340 340 347 345 341 339 344 341 335 337 338 339 339 339 339 340 340 341 341 339 338 337 336 335 334 333 332 332 336 337 338
314 315 315 321 318 338 333 339 336 331 340 348 352 352 351 350 350 349 348 348 348 346 343 344 338 341 343 338 334 337 337 337 337 337 337 336 337 337 337 337 336 335 337 338 338 337 336 338 340
314 312 314 320 326 331 338 342 332 331 341 345 350 352 350 349 347 346 344 343 341 342 342 339 338 340 339 339 337 335 335 341 340 339 337 334 331 332 332 330 335 334 333 338 338 339 339 341 340
311 316 316 328 329 332 336 336 332 332 341 347 348 347 346 346 345 344 342 341 339 340 339 339 340 341 343 342 340 339 340 339 335 332 332 332 331 328 331 331 328 333 334 330 335 334 336 339 336
318 318 323 332 331 332 333 335 333 334 343 348 344 341 341 344 345 343 339 337 336 337 337 337 336 334 337 340 342 340 340 339 332 332 335 334 331 328 331 332 332 329 333 331 331 334 334 335 336
317 325 332 331 331 332 333 336 335 335 336 345 343 337 337 337 340 339 334 329 328 331 334 336 338 337 337 337 339 340 339 338 337 333 332 329 331 329 330 332 329 329 330 329 329 332 333 336 335
318 319 328 330 332 332 333 332 331 336 339 340 345 338 337 335 333 333 331 328 329 329 330 330 332 333 335 336 336 339 339 338 338 336 335 332 330 331 331 333 333 330 328 329 332 333 334 334 335
319 317 322 324 332 330 331 331 333 336 342 341 340 341 337 336 334 333 332 330 328 325 323 324 326 329 329 330 331 333 335 336 336 336 336 337 337 334 332 333 333 333 332 330 331 334 333 334 334
320 318 318 331 328 330 324 337 334 335 343 342 343 342 338 337 335 332 331 331 329 327 323 320 317 317 317 317 324 332 335 336 335 335 335 336 336 334 332 333 333 332 334 332 331 335 334 334 335
321 324 322 325 320 328 329 333 333 335 344 342 341 340 337 336 334 332 329 329 327 325 324 323 321 319 318 317 319 321 329 332 331 333 333 332 331 330 330 332 332 330 330 330 333 337 336 335 336
321 322 320 320 323 330 330 332 334 336 342 339 340 337 337 334 331 328 327 324 324 324 323 323 320 320 322 321 318 318 321 322 323 322 326 333 332 330 328 328 327 327 325 327 330 333 336 337 336
320 319 322 323 325 330 327 336 335 335 336 337 338 335 333 330 328 326 325 324 324 324 324 324 322 319 318 322 319 319 321 322 323 324 324 328 332 331 329 327 327 326 326 327 329 331 332 332 332
322 320 324 330 325 326 331 339 336 334 331 330 336 332 330 327 322 321 321 321 320 320 319 319 322 318 319 319 319 320 321 321 321 321 324 325 328 327 328 327 326 325 325 327 328 329 329 329 329
322 323 320 320 321 329 330 333 330 330 327 330 330 329 325 322 321 319 320 320 318 315 315 316 317 318 318 318 317 317 317 318 319 318 318 320 325 325 326 327 326 325 325 324 325 326 325 325 326
321 319 322 319 324 327 324 337 335 333 328 325 324 324 322 320 319 319 319 318 316 315 314 316 317 318 317 316 315 314 314 314 314 315 317 318 319 320 323 325 325 326 324 323 323 323 323 323 322
318 319 318 317 319 320 324 335 327 326 324 323 321 320 319 317 316 317 317 315 314 314 314 317 318 317 316 314 313 313 314 315 316 316 318 318 319 321 323 324 321 321 321 322 322 320 322 322 320
320 321 316 320 321 320 324 332 322 322 320 320 319 317 316 314 315 316 314 312 312 312 315 317 317 317 315 313 314 313 313 314 314 315 315 313 313 314 315 316 315 314 314 315 317 316 315 311 309
Wind_Speed
7 10 7 3 4 4 4 5 2 3 3 3 1 4 5 2 3 4 4 19 10 30 32 30 28 25 24 24 24 26 27 28 29 31 32 31 30 29 29 27 26 24 22 21 20 18 17 17 17
9 9 3 2 4 3 4 5 5 8 2 2 4 2 3 4 2 2 3 14 16 28 32 32 29 27 25 24 24 25 26 27 29 30 31 30 29 28 27 26 25 23 21 20 18 17 16 16 16
6 1 3 4 2 3 4 6 11 6 5 1 3 1 2 3 2 6 4 16 21 29 30 31 30 27 26 25 24 24 24 25 27 28 28 28 27 26 25 25 23 21 19 17 16 15 15 15 15
5 4 4 3 4 8 6 9 8 3 4 3 2 4 2 4 2 4 11 16 23 30 30 29 31 28 25 25 25 24 23 24 24 24 24 24 24 23 23 22 20 19 16 15 14 13 14 15 15
3 3 3 1 5 6 6 7 3 1 6 2 2 4 3 2 2 6 17 18 26 31 30 26 29 27 25 24 24 23 22 22 22 22 22 21 21 20 20 19 18 17 16 16 16 17 17 17 17
4 3 3 2 5 6 8 5 1 3 2 3 1 2 2 0 8 11 16 18 24 25 27 25 28 28 26 24 23 23 23 22 20 20 20 19 19 19 18 18 18 18 18 18 17 17 17 16 16
5 4 3 3 5 6 5 9 3 1 5 4 3 2 1 1 8 15 16 18 20 20 24 23 26 29 28 25 24 23 22 21 20 19 18 18 18 19 19 18 18 18 18 18 18 17 18 18 18
5 4 1 4 3 6 6 11 5 3 4 2 3 5 4 5 16 17 15 19 19 16 20 20 23 28 29 28 26 24 23 22 21 20 20 19 19 19 18 18 19 19 19 19 18 18 19 19 19
3 4 2 4 2 6 3 8 3 0 5 2 4 2 4 21 23 19 12 6 7 8 12 15 17 24 28 29 28 25 24 23 23 22 21 20 20 20 20 21 21 21 20 19 19 19 19 19 20
4 3 6 4 4 5 7 2 9 8 5 1 4 2 14 20 20 20 16 10 5 11 16 14 15 17 24 29 29 29 27 25 25 25 24 24 24 23 23 23 22 22 22 22 22 21 21 20 22
3 4 4 5 5 3 4 4 6 8 5 5 10 6 14 17 19 16 12 4 9 16 20 23 20 19 19 27 32 30 28 28 27 27 26 25 25 25 25 25 25 25 23 24 23 23 23 24 24
2 7 5 6 3 3 4 3 6 13 7 17 9 11 17 13 10 13 12 18 13 20 23 26 28 29 28 28 29 32 32 32 30 29 27 27 28 28 28 28 28 27 25 25 25 25 25 26 25
4 4 5 6 6 6 9 10 9 17 16 11 19 19 17 10 7 8 11 6 10 10 17 26 29 31 34 34 30 30 31 29 29 29 30 30 32 32 30 30 29 28 26 26 27 27 28 28 27
6 2 5 1 5 7 13 10 5 14 13 16 23 21 20 18 13 14 16 24 27 21 20 20 26 33 34 37 33 32 26 22 21 21 21 23 25 25 27 26 25 26 26 27 27 29 30 30 30
1 4 4 8 4 4 3 14 13 13 12 19 20 19 19 18 24 21 23 24 26 28 18 17 27 28 32 27 34 23 15 19 20 20 20 21 21 19 21 21 24 23 21 21 24 29 30 30 30
7 6 4 5 8 6 8 3 9 13 12 16 16 18 18 19 21 23 24 27 34 36 34 27 6 6 10 20 21 11 8 9 14 11 17 22 21 16 15 22 18 16 18 20 18 21 29 27 25
7 2 3 3 11 3 7 3 8 11 8 12 14 15 15 16 20 23 20 22 27 42 31 46 37 29 20 16 3 6 10 11 21 13 15 22 20 31 31 34 36 25 25 21 19 16 19 23 18
2 3 5 5 7 17 13 7 5 6 8 11 13 13 14 15 16 16 20 18 20 25 38 41 42 39 35 26 16 14 12 14 9 27 29 27 23 26 36 34 30 36 31 28 18 19 16 29 22
3 5 9 2 3 10 4 6 7 4 5 7 9 13 15 13 12 16 17 21 26 35 39 37 39 35 32 31 21 9 3 14 22 27 32 29 31 27 30 34 30 27 24 22 26 26 16 29 22
3 7 4 6 3 7 4 8 5 6 3 1 5 8 16 9 8 14 16 15 23 33 38 40 39 36 33 29 24 16 13 15 16 15 17 21 24 30 32 38 34 32 24 19 10 12 20 22 19
3 5 5 7 3 5 1 5 7 5 6 5 2 2 11 14 7 5 9 10 23 33 34 34 32 30 29 26 22 19 15 14 15 18 17 13 18 25 32 32 29 30 31 27 23 22 24 25 18
2 5 5 14 5 4 2 2 6 5 7 7 7 3 10 11 5 3 8 12 21 25 26 27 27 27 26 24 20 14 11 10 13 15 16 16 16 20 21 22 22 22 24 25 35 32 32 25 17
3 5 6 4 4 5 5 5 5 5 4 6 10 10 9 8 7 9 11 13 14 19 22 24 24 23 21 22 20 19 14 13 18 20 19 17 15 16 21 22 22 21 21 24 25 24 21 24 18
4 5 7 5 3 4 3 4 4 3 3 3 5 4 5 7 8 8 13 17 18 22 27 26 25 24 22 22 23 20 16 18 20 20 21 19 19 20 19 17 17 16 17 18 18 18 12 12 14
8 7 4 5 5 3 4 4 5 3 0 3 5 4 2 5 6 7 8 15 20 24 25 24 23 26 24 20 21 21 19 18 19 22 22 23 21 22 22 20 18 15 14 14 12 11 10 9 10
4 5 5 2 1 2 5 2 2 3 7 6 4 3 4 6 5 6 12 17 20 21 22 21 19 22 22 21 23 23 21 22 24 23 23 20 21 23 21 18 16 16 12 9 8 4 1 3 5
2 5 4 6 3 3 2 1 3 4 4 3 5 5 5 4 6 8 14 14 19 24 23 21 20 20 22 23 24 24 24 24 24 25 25 23 20 24 26 19 13 10 7 7 5 1 2 4 7
5 4 4 4 2 1 3 1 3 5 3 4 4 4 4 6 7 6 9 13 15 17 19 18 18 21 25 26 25 24 24 26 27 27 26 26 24 21 22 19 12 9 7 4 5 4 1 4 6
6 4 6 5 3 4 2 3 4 3 2 4 5 5 5 5 6 6 10 16 17 17 17 15 17 23 28 30 31 34 35 34 30 26 28 28 25 21 15 9 6 4 4 6 6 5 4 5 8
2 2 4 5 3 2 3 3 5 5 6 6 5 5 5 5 6 7 12 16 17 15 15 15 20 23 25 27 29 31 33 34 28 26 23 21 16 15 10 6 5 6 6 5 1 5 9 14 17
Wind_Direction
142 131 138 95 53 56 281 265 292 238 250 211 222 130 184 225 190 219 318 183 167 169 168 167 165 161 160 156 155 153 155 155 157 166 168 169 173 174 174 173 173 174 173 174 176 176 171 168 168
142 140 86 77 80 33 270 271 258 245 247 156 64 48 14 267 193 147 145 173 178 172 171 168 170 166 164 159 157 157 157 159 162 166 170 174 176 177 176 177 178 179 179 179 180 180 178 178 179
155 125 70 83 119 191 244 229 231 254 267 261 45 55 245 229 316 184 210 167 172 176 175 173 173 171 168 164 161 160 162 163 165 168 172 175 177 178 180 181 182 184 184 185 186 186 187 188 191
150 20 33 76 270 250 235 268 236 286 68 64 123 269 301 266 254 208 162 171 174 178 178 179 178 175 175 172 168 166 167 169 170 172 175 177 179 180 182 185 187 191 192 195 199 202 204 205 205
81 63 52 30 255 264 250 271 249 197 131 156 138 263 219 276 300 172 168 175 178 176 179 180 181 182 181 182 179 176 176 177 179 179 181 183 185 186 187 188 192 197 201 206 209 212 215 216 216
49 103 50 293 271 273 292 262 287 128 88 151 216 232 240 148 140 160 171 178 180 176 176 182 183 188 189 190 190 188 188 189 189 190 190 190 191 194 198 202 206 209 212 214 219 224 228 230 231
124 94 199 246 271 307 288 334 24 140 146 243 137 223 314 226 161 159 170 177 181 181 180 187 188 194 195 197 199 200 200 199 198 199 201 202 205 207 210 213 216 218 220 224 225 229 233 236 238
111 92 159 246 279 286 317 342 294 177 230 2 94 252 275 193 159 158 168 176 183 182 186 191 197 198 202 202 204 208 209 209 210 210 211 213 215 217 220 222 224 225 227 229 234 237 242 244 246
123 61 281 257 191 273 333 3 278 44 104 354 230 257 281 145 153 151 118 129 185 193 206 202 209 208 208 208 208 212 217 216 218 220 221 221 224 225 227 228 229 231 233 237 240 244 247 251 254
95 116 226 216 221 281 313 20 331 353 359 176 276 55 112 134 86 73 57 24 307 239 231 230 231 226 217 215 215 214 217 221 222 224 225 227 230 231 233 235 236 238 239 240 243 245 248 250 251
168 199 212 277 249 264 293 82 14 351 9 354 291 2 49 76 90 97 118 148 258 256 249 237 232 239 238 225 219 219 220 223 227 231 232 236 239 239 239 242 241 242 244 248 250 253 254 256 257
344 253 205 308 22 20 2 336 69 36 315 294 275 114 92 94 114 134 198 198 205 233 249 243 240 238 239 239 232 226 224 223 227 232 236 240 245 248 249 249 250 250 252 256 260 262 262 262 263
171 262 98 298 86 66 82 52 71 27 357 26 69 72 75 76 99 154 236 313 344 282 263 250 248 245 244 245 242 240 238 237 235 238 240 242 245 250 253 256 260 263 265 263 266 267 265 265 266
201 295 297 169 95 63 81 30 52 354 348 39 67 65 60 56 32 16 345 350 0 340 299 278 262 254 251 250 250 251 257 271 281 288 306 308 293 293 296 294 296 295 292 284 276 275 273 273 275
219 41 37 19 294 144 74 35 24 358 22 50 58 67 62 52 47 31 17 13 5 9 347 294 268 271 260 251 256 263 303 314 315 318 317 323 325 323 318 311 296 294 296 292 287 279 270 274 275
16 75 67 2 358 2 85 20 13 5 37 48 45 51 48 54 44 40 36 33 29 31 29 50 30 344 305 275 273 290 304 26 32 46 65 56 30 352 354 348 319 311 315 297 299 292 273 264 275
7 38 24 45 0 76 68 124 2 10 48 64 60 52 55 40 38 31 37 42 45 56 44 53 54 51 38 33 6 169 146 101 69 16 339 338 336 333 309 316 318 285 277 284 290 287 293 273 274
353 57 60 59 342 70 62 58 13 9 55 71 75 64 53 40 30 21 27 39 61 70 68 64 60 58 57 57 74 140 161 149 267 275 271 270 288 312 269 283 281 285 269 265 266 261 290 283 272
101 89 111 130 143 65 52 66 28 30 37 64 78 86 67 51 25 27 29 42 55 58 63 63 65 64 63 56 55 68 38 330 313 286 276 288 281 277 272 281 269 276 272 295 285 268 269 267 271
118 113 87 53 20 90 149 49 339 24 15 129 88 103 97 79 38 21 20 32 53 60 61 61 61 56 54 54 46 39 23 5 351 329 305 297 262 269 271 282 283 285 277 297 266 271 269 263 257
118 124 190 131 109 26 165 35 6 338 352 32 242 320 81 80 40 14 5 19 61 64 63 62 60 59 55 51 47 40 29 10 0 352 337 317 287 275 279 288 296 292 291 278 280 289 275 266 250
89 174 167 142 118 172 52 235 343 351 328 357 13 119 57 74 51 18 7 21 50 65 69 65 59 56 50 42 40 35 16 346 336 328 322 315 305 288 284 282 281 292 288 281 273 277 257 248 243
186 89 131 122 92 107 17 77 276 352 341 344 2 10 27 28 20 3 350 6 33 45 47 52 47 43 41 39 30 19 6 345 334 326 319 315 316 314 306 291 288 284 280 277 273 273 259 245 224
122 88 55 56 81 46 312 116 281 256 284 338 318 353 353 2 1 6 3 23 26 30 31 27 25 22 19 20 18 16 5 350 339 334 323 315 311 315 319 310 300 295 288 284 277 274 255 227 229
60 53 3 19 21 198 317 56 247 323 147 240 231 255 327 1 2 344 325 4 14 16 13 8 8 9 5 2 0 360 356 351 347 337 324 314 310 312 317 319 315 310 302 301 294 281 255 234 219
59 125 139 181 190 240 356 64 266 271 304 239 199 147 54 15 327 338 359 3 5 5 7 2 356 356 2 6 4 5 1 351 344 344 338 319 308 309 311 310 316 319 310 309 306 306 253 194 192
156 55 160 105 25 80 279 338 340 349 38 79 107 83 44 1 6 2 355 351 358 360 358 359 0 3 10 8 4 359 354 351 347 338 336 333 320 315 316 305 309 320 328 326 324 331 105 138 142
105 146 52 16 85 351 328 115 252 339 11 38 63 85 26 23 10 341 339 345 344 349 349 353 358 4 5 3 5 3 1 352 345 337 335 332 322 318 316 309 300 302 310 324 331 324 167 143 125
4 25 49 107 110 157 186 260 359 321 42 66 53 54 36 12 347 318 323 333 334 342 348 347 3 7 4 3 3 2 359 352 347 343 343 335 327 325 319 314 274 267 279 291 308 310 248 163 134
39 109 111 111 223 69 133 256 350 76 85 83 52 20 352 327 305 317 319 322 340 334 335 7 7 5 6 5 5 7 2 355 348 344 351 354 0 13 23 41 37 34 36 53 105 99 113 99 105